CZ-6A DEB, 54388

Orbit data source: Space-Track

CZ-6A DEB, 54388 is space debris in SSO originally from a launch on Fri, 11 Nov 2022 UTC launched from the Taiyaun Space Center, China (TSC). Debris objects in space refer to the collection of defunct objects orbiting the Earth. Examples of debris include non-operational satellites, rocket bodies, and fragments generated from explosions, collisions, or faulty payload assembly.

Loading next visibility...
Identifier
54388, 2022-151DL
Orbit
SSO
Country
Flag of CNCN / PRC
Related business
Manufacturer
SAST
Mission
Spacecraft
Bus & Motor
Unknown
Mass
Unknown
Launch date (UTC)
2022-11-11 (4 years ago)
Launch vehicle
Unknown
Launch site
Taiyaun Space Center, China (TSC)
Object type
Payload
Rocket body
Debris
Shape & HBR
Unknown shape, 0.1 m
Radar Cross Section
Small (<0.1 m²)

Expand to show TLE details & history
Last TLE update: 2 days ago

TLE from 2 days ago
0 CZ-6A DEB
1 54388U 22151DL  26171.43770535  .00000591  00000-0  37436-3 0  9991
2 54388  98.8781 159.7049 0088989  21.5967 338.8918 14.05850676184070
Epoch: 2026-06-20T10:30Z
TLE epoch observation values (Epoch: 2026-06-20T10:30:17.742Z)
Latitude
0.00001°
Longitude
93.47864°
Altitude
816.356 km
Speed
7.476 km/s
True Right ascension
10h 38m 49s
True Declination
0° 00' 00"
Sunlit
Object was in daylight at epoch
Visualization orbit readout
Latitude
Unknown
Longitude
Unknown
Altitude
Unknown
Speed
Unknown
Apparent Right ascension
Unknown
Apparent Declination
Unknown
Sunlit
N/A
Visualization observer readout
Local Sidereal Time
21:42:23
Azimuth
Unknown
Elevation
Unknown
Doppler factor
Unknown
Orbital elements
Apogee altitude
935.298 km
Perigee altitude
806.283 km
Semi-major axis
7,248.928 km
Eccentricity
0.0089
Inclination
98.8781°
RAAN
159.7049°
Arg. of periapsis
21.5967°
True anomaly
338.52071°
Mean anomaly
338.8918°
Eccentric anomaly
338.70664°
Mean motion
3.51668 °/min
Orbital period
102.37 mins
BSTAR
0.00037436
Loading maneuver chart data...
Computing Atmospheric mass density...
Loading historical data...
Loading historical data...
Loading historical data...
Loading historical data...
Loading historical data...
Loading historical data...
Loading historical data...

Documentation

Showing up to 5 results
|